User: anonymous   Login
Location: Hiram
(41.3130°N, 81.1440°W)
Time: 06:39:05
(UTC-04:00)
Language:

Iridium 62 - Orbit

View from above orbital plane
View from above orbital plane
View from above satellite
View from above satellite

Ground track
Ground track

The orbit data is extracted from the following two-line orbital elements,

1 25285U 98021A   15088.50352416  .00000693  00000-0  24041-3 0  9992
2 25285 086.3998 202.7497 0002113 098.1937 261.9498 14.34213066888825
Epoch (UTC): 29 March 2015 12:05:04
Eccentricity: 0.0002113
inclination: 86.3998°
perigee height: 776 km
apogee height: 779 km
right ascension of ascending node: 202.7497°
argument of perigee: 98.1937°
revolutions per day: 14.34213066
mean anomaly at epoch: 261.9498°
orbit number at epoch: 88882

The dashed part of the orbit path shows where the satellite is in the earth's shadow,  

DLR